| time (UTC) | temp F | wind direction | speed MPH | gust MPH | rain 1hr in | rain 24hr in | rain mn in | humidity % | barometer mb |
| 20260901160258 | 84 | 60 | 3.0 | 7.0 | 0.00 | 0.00 | 0.00 | 83 | 1007.0 |
| 20260901160200 | 84 | 36 | 4.0 | 7.0 | 0.00 | 0.00 | 0.00 | 83 | 1007.0 |
| 20260901160010 | 84 | 39 | 5.0 | 7.0 | 0.00 | 0.00 | 0.00 | 83 | 1007.0 |
| 20260901155909 | 84 | 39 | 5.0 | 7.0 | 0.00 | 0.00 | 0.00 | 83 | 1007.0 |
| 20260901131402 | 87 | 48 | 9.0 | 13.0 | 0.00 | 0.00 | 0.00 | 79 | 1004.9 |
| 20260901131259 | 87 | 53 | 9.0 | 13.0 | 0.00 | 0.00 | 0.00 | 79 | 1004.9 |
| 20260901131205 | 88 | 53 | 9.0 | 13.0 | 0.00 | 0.00 | 0.00 | 79 | 1004.9 |
| 20260901131104 | 88 | 49 | 7.0 | 10.0 | 0.00 | 0.00 | 0.00 | 79 | 1004.9 |
| 20260901131008 | 88 | 49 | 4.0 | 9.0 | 0.00 | 0.00 | 0.00 | 79 | 1004.9 |
| 20260901130901 | 88 | 84 | 3.0 | 9.0 | 0.00 | 0.00 | 0.00 | 79 | 1005.0 |
| 20260901130801 | 88 | 24 | 3.0 | 9.0 | 0.00 | 0.00 | 0.00 | 79 | 1004.9 |
| 20260901130709 | 88 | 67 | 4.0 | 9.0 | 0.00 | 0.00 | 0.00 | 79 | 1005.0 |
| 20260901130602 | 88 | 52 | 4.0 | 10.0 | 0.00 | 0.00 | 0.00 | 78 | 1005.0 |
| 20260901130504 | 88 | 57 | 3.0 | 10.0 | 0.00 | 0.00 | 0.00 | 78 | 1004.9 |
| 20260901130402 | 88 | 67 | 3.0 | 10.0 | 0.00 | 0.00 | 0.00 | 78 | 1004.9 |
| 20260901130301 | 88 | 80 | 4.0 | 10.0 | 0.00 | 0.00 | 0.00 | 78 | 1004.9 |
| 20260901130201 | 88 | 65 | 5.0 | 11.0 | 0.00 | 0.00 | 0.00 | 77 | 1005.0 |
| 20260901130011 | 88 | 69 | 6.0 | 11.0 | 0.00 | 0.00 | 0.00 | 77 | 1004.9 |
| 20260901125903 | 89 | 55 | 6.0 | 11.0 | 0.00 | 0.00 | 0.00 | 76 | 1005.0 |
| 20260901125802 | 89 | 54 | 8.0 | 11.0 | 0.00 | 0.00 | 0.00 | 76 | 1004.9 |
| 20260901125700 | 89 | 55 | 6.0 | 11.0 | 0.00 | 0.00 | 0.00 | 75 | 1004.9 |
| 20260901125602 | 90 | 56 | 6.0 | 11.0 | 0.00 | 0.00 | 0.00 | 75 | 1004.9 |
| 20260901125308 | 90 | 51 | 4.0 | 9.0 | 0.00 | 0.00 | 0.00 | 74 | 1004.8 |
| 20260901125203 | 91 | 38 | 4.0 | 9.0 | 0.00 | 0.00 | 0.00 | 73 | 1004.8 |
| 20260901125005 | 91 | 9 | 3.0 | 9.0 | 0.00 | 0.00 | 0.00 | 72 | 1004.7 |
| 20260901124904 | 91 | 30 | 3.0 | 8.0 | 0.00 | 0.00 | 0.00 | 70 | 1004.7 |
| 20260901124804 | 91 | 30 | 3.0 | 8.0 | 0.00 | 0.00 | 0.00 | 70 | 1004.7 |
| 20260901124703 | 91 | 30 | 3.0 | 8.0 | 0.00 | 0.00 | 0.00 | 70 | 1004.7 |
| 20260901124642 | 91 | 30 | 3.0 | 8.0 | 0.00 | 0.00 | 0.00 | 70 | 1004.8 |
| 20260831192003 | 84 | 349 | 0.0 | 2.0 | 0.00 | 1.14 | 0.00 | 88 | 1003.9 |
| 20260831191859 | 84 | 349 | 0.0 | 2.0 | 0.00 | 1.14 | 0.00 | 88 | 1003.9 |
| 20260831191805 | 84 | 349 | 0.0 | 2.0 | 0.00 | 1.14 | 0.00 | 88 | 1003.9 |
| 20260831191659 | 84 | 349 | 0.0 | 2.0 | 0.00 | 1.14 | 0.00 | 88 | 1003.9 |
| 20260831191559 | 84 | 349 | 0.0 | 2.0 | 0.00 | 1.14 | 0.00 | 88 | 1004.0 |
| 20260831191505 | 84 | 349 | 1.0 | 2.0 | 0.00 | 1.14 | 0.00 | 87 | 1004.0 |
| 20260831191359 | 84 | 349 | 0.0 | 2.0 | 0.00 | 1.14 | 0.00 | 87 | 1003.9 |
| 20260831191304 | 84 | 349 | 0.0 | 2.0 | 0.00 | 1.14 | 0.00 | 87 | 1003.9 |
| 20260831191158 | 84 | 349 | 1.0 | 2.0 | 0.00 | 1.14 | 0.00 | 87 | 1004.0 |
| 20260831191106 | 84 | 349 | 1.0 | 2.0 | 0.00 | 1.14 | 0.00 | 87 | 1004.0 |
| 20260831191004 | 84 | 349 | 0.0 | 2.0 | 0.00 | 1.14 | 0.00 | 87 | 1003.9 |
| 20260831190900 | 84 | 349 | 1.0 | 2.0 | 0.00 | 1.14 | 0.00 | 87 | 1003.9 |
| 20260831190659 | 84 | 24 | 1.0 | 2.0 | 0.00 | 1.14 | 0.00 | 87 | 1003.9 |
| 20260831190606 | 84 | 24 | 2.0 | 2.0 | 0.00 | 1.14 | 0.00 | 87 | 1003.9 |
| 20260831190404 | 84 | 35 | 0.0 | 2.0 | 0.00 | 1.14 | 0.00 | 87 | 1004.0 |
| 20260831190307 | 84 | 48 | 0.0 | 0.0 | 0.00 | 1.14 | 0.00 | 87 | 1003.9 |
| 20260831190203 | 84 | 47 | 0.0 | 0.0 | 0.00 | 1.14 | 0.00 | 87 | 1004.0 |
| 20260831190106 | 0 | 0.0 | 0.0 | 0.00 | 1.14 | 0.00 | 1004.0 | ||
| 20260831190011 | 0 | 0.0 | 0.0 | 0.00 | 1.14 | 0.00 | 1004.0 | ||
| 20260831185904 | 0 | 0.0 | 0.0 | 0.00 | 1.14 | 0.00 | 1004.0 | ||
| 20260831185659 | 84 | 177 | 0.0 | 0.0 | 0.00 | 1.14 | 1.14 | 87 | 1003.9 |
| 20260831185621 | 84 | 177 | 0.0 | 0.0 | 0.00 | 1.14 | 1.14 | 87 | 1003.9 |